Ely, NV

2:50 PM PDT on August 23, 2016 (GMT -0700)
Ely

Weather History for KELY - April, 2013

Change the Weather History Date:

Wednesday, April 10, 2013

  Actual Average Record
Temperature  
Mean Temperature 42 °F 41 °F  
Max Temperature 61 °F 56 °F 75 °F (1989)
Min Temperature 23 °F 26 °F 9 °F (1999)
Degree Days  
Heating Degree Days 23 24  
Month to date heating degree days 219 249  
Since 1 July heating degree days 6199 6476  
Cooling Degree Days 0 0  
Month to date cooling degree days 0 0  
Year to date cooling degree days 0 0  
Moisture  
Dew Point 18 °F    
Average Humidity 42    
Maximum Humidity 63    
Minimum Humidity 20    
Precipitation  
Precipitation 0.00 in 0.04 in 0.80 in (1896)
Month to date precipitation 0.39 0.32  
Year to date precipitation 2.09 2.70  
Snow  
Snow 0.00 in 0.20 in 8.00 in (1896)
Month to date snowfall 1.3 2.2  
Since 1 July snowfall 59.8 45.4  
Snow Depth 0.00 in    
Sea Level Pressure  
Sea Level Pressure 30.07 in    
Wind  
Wind Speed 11 mph (NNW)    
Max Wind Speed 22 mph    
Max Gust Speed 26 mph    
Visibility 10 miles    
Events      
T = Trace of Precipitation, MM = Missing Value Source: NWS Daily Summary

Daily Weather History Graph

Daily Weather History Graph

Search for Another Location

Airport or City:

Trip Planner

Search our weather history database for the weather conditions in past years. The results will help you decide how hot, cold, wet, or windy it might be!

Date:

Astronomy

Apr. 10, 2013 Rise Set
Actual Time 6:09 AM PDT 7:12 PM PDT
Civil Twilight 5:41 AM PDT 7:39 PM PDT
Nautical Twilight 5:09 AM PDT 8:12 PM PDT
Astronomical Twilight 4:35 AM PDT 8:46 PM PDT
Moon 6:08 AM PDT (4/10) 7:51 PM PDT (4/10)
Length of Visible Light 13h 57m
Length of Day
13h 03m
New Moon, 0% of the Moon is Illuminated
Apr 10
New Moon
Apr 18
First Quarter
Apr 25
Full
May 2
Last Quarter
May 9
New

Hourly Weather History & Observations

Time (PDT) Temp. Windchill Dew Point Humidity Pressure Visibility Wind Dir Wind Speed Gust Speed Precip Events Conditions
12:53 AM 28.9 °F 22.8 °F 16.0 °F 58% 30.15 in 10.0 mi North 5.8 mph - N/A   Clear
1:53 AM 28.9 °F 25.2 °F 16.0 °F 58% 30.13 in 10.0 mi NW 3.5 mph - N/A   Clear
2:53 AM 30.0 °F 21.1 °F 17.1 °F 59% 30.12 in 10.0 mi NNW 10.4 mph - N/A   Clear
3:53 AM 30.0 °F 21.7 °F 17.1 °F 59% 30.14 in 10.0 mi NW 9.2 mph - N/A   Clear
4:53 AM 28.0 °F 18.6 °F 17.1 °F 63% 30.14 in 10.0 mi North 10.4 mph - N/A   Clear
5:53 AM 28.9 °F 19.2 °F 17.1 °F 61% 30.15 in 10.0 mi North 11.5 mph - N/A   Clear
6:53 AM 26.1 °F 18.4 °F 16.0 °F 66% 30.19 in 10.0 mi NW 6.9 mph - N/A   Clear
7:53 AM 34.0 °F 25.5 °F 18.0 °F 52% 30.17 in 10.0 mi NNE 11.5 mph - N/A   Clear
8:53 AM 37.0 °F 29.3 °F 18.0 °F 46% 30.15 in 10.0 mi North 11.5 mph - N/A   Clear
9:53 AM 43.0 °F 36.8 °F 16.0 °F 34% 30.15 in 10.0 mi NNE 11.5 mph - N/A   Clear
10:53 AM 46.0 °F 39.9 °F 12.9 °F 26% 30.13 in 10.0 mi North 13.8 mph 18.4 mph N/A   Clear
11:53 AM 51.1 °F - 15.1 °F 24% 30.10 in 10.0 mi North 17.3 mph 24.2 mph N/A   Clear
12:53 PM 53.1 °F - 16.0 °F 23% 30.08 in 10.0 mi NNE 10.4 mph 20.7 mph N/A   Clear
1:53 PM 57.0 °F - 19.9 °F 24% 30.04 in 10.0 mi NNE 10.4 mph 24.2 mph N/A   Clear
2:53 PM 57.9 °F - 19.9 °F 23% 30.00 in 10.0 mi NNE 13.8 mph 19.6 mph N/A   Clear
3:53 PM 60.1 °F - 19.9 °F 21% 29.96 in 10.0 mi NNE 15.0 mph 21.9 mph N/A   Clear
4:53 PM 59.0 °F - 19.9 °F 22% 29.96 in 10.0 mi NW 19.6 mph 25.3 mph N/A   Clear
5:53 PM 55.9 °F - 19.0 °F 24% 29.97 in 10.0 mi NW 16.1 mph 23.0 mph N/A   Clear
6:53 PM 54.0 °F - 19.0 °F 25% 30.00 in 10.0 mi NW 11.5 mph - N/A   Clear
7:53 PM 48.0 °F - 21.0 °F 34% 30.00 in 10.0 mi West 12.7 mph - N/A   Clear
8:53 PM 46.0 °F 42.5 °F 21.9 °F 39% 30.00 in 10.0 mi WNW 6.9 mph - N/A   Clear
9:53 PM 42.1 °F - 23.0 °F 47% 29.98 in 10.0 mi Calm Calm - N/A   Clear
10:53 PM 34.0 °F 27.2 °F 21.0 °F 59% 29.99 in 10.0 mi SSE 8.1 mph - N/A   Clear
11:53 PM 35.1 °F 27.4 °F 21.0 °F 57% 29.95 in 10.0 mi South 10.4 mph - N/A   Clear